Location: Winthrop
(48.4780°N, 120.1850°W)
Time: 19:44:31
(UTC-08:00)

Envisat - Pass Details

Date: 27 November 2022
Orbit: 763 x 765 km, 98.2° (Epoch: 05 February)

Event Time Altitude Azimuth Distance (km) Brightness Sun altitude
Rises 05:03:55 0° 8° (N) 3,245 6.3 -22.9°
Reaches altitude 10° 05:06:19 10° 3° (N) 2,314 5.4 -22.5°
Enters shadow 05:09:59 38° 326° (NNW) 1,164 3.6 -21.9°
